TimeAKST,TemperatureF,Dew PointF,Humidity,Sea Level PressureIn,VisibilityMPH,Wind Direction,Wind SpeedMPH,Gust SpeedMPH,PrecipitationIn,Events,Conditions,WindDirDegrees,DateUTC
12:08 AM,41.0,33.8,76,29.26,6.0,East,28.8,38.0,0.00,Rain,Light Rain,90,2012-12-29 09:08:00
12:53 AM,39.9,33.1,77,29.26,7.0,East,20.7,41.4,0.07,Rain,Light Rain,100,2012-12-29 09:53:00
1:53 AM,39.0,34.0,82,29.26,7.0,East,13.8,23.0,0.05,Rain,Light Rain,90,2012-12-29 10:53:00
3:27 AM,37.4,33.8,87,29.23,10.0,ENE,20.7,29.9,0.01,Rain,Light Rain,70,2012-12-29 12:27:00
3:53 AM,37.9,34.0,86,29.22,8.0,NE,16.1,-,0.03,Rain,Light Rain,50,2012-12-29 12:53:00
4:53 AM,41.0,32.0,70,29.23,10.0,ESE,17.3,23.0,0.01,,Overcast,120,2012-12-29 13:53:00
5:53 AM,41.0,30.9,67,29.22,10.0,ESE,15.0,31.1,0.01,,Overcast,110,2012-12-29 14:53:00
6:53 AM,39.9,33.1,77,29.28,5.0,SE,9.2,21.9,0.01,Rain,Light Rain,130,2012-12-29 15:53:00
7:53 AM,39.0,33.1,79,29.32,9.0,ESE,13.8,24.2,0.04,Rain,Light Rain,110,2012-12-29 16:53:00
8:53 AM,39.9,33.1,77,29.36,7.0,ESE,8.1,-,0.02,Rain,Light Rain,120,2012-12-29 17:53:00
9:53 AM,39.9,33.1,77,29.39,10.0,Variable,6.9,-,0.01,,Overcast,0,2012-12-29 18:53:00
10:53 AM,39.0,33.1,79,29.42,10.0,SE,6.9,-,0.00,,Overcast,140,2012-12-29 19:53:00
11:33 AM,39.2,33.8,81,29.43,4.0,South,5.8,-,0.00,Rain,Light Rain,180,2012-12-29 20:33:00
11:53 AM,39.9,33.1,77,29.45,10.0,ESE,5.8,-,0.00,,Overcast,120,2012-12-29 20:53:00
12:01 PM,39.2,32.0,75,29.44,10.0,SSE,6.9,-,N/A,,Overcast,150,2012-12-29 21:01:00
12:53 PM,39.9,30.9,70,29.46,10.0,ESE,8.1,19.6,N/A,,Overcast,120,2012-12-29 21:53:00
1:53 PM,41.0,30.0,65,29.44,10.0,SSE,12.7,28.8,N/A,,Scattered Clouds,150,2012-12-29 22:53:00
2:53 PM,42.1,28.9,60,29.44,10.0,East,6.9,-,N/A,,Overcast,100,2012-12-29 23:53:00
3:53 PM,41.0,28.9,62,29.43,10.0,Calm,Calm,-,N/A,,Overcast,0,2012-12-30 00:53:00
4:53 PM,39.9,28.9,65,29.36,10.0,NNE,6.9,-,N/A,,Overcast,30,2012-12-30 01:53:00
5:53 PM,41.0,28.9,62,29.32,10.0,ENE,18.4,23.0,N/A,,Clear,70,2012-12-30 02:53:00
6:53 PM,43.0,26.1,51,29.29,10.0,ENE,15.0,25.3,N/A,,Clear,70,2012-12-30 03:53:00
7:53 PM,42.1,27.0,55,29.20,10.0,NE,6.9,-,N/A,,Mostly Cloudy,50,2012-12-30 04:53:00
8:53 PM,43.0,32.0,65,29.14,10.0,ENE,25.3,33.4,0.00,Rain,Light Rain,70,2012-12-30 05:53:00
9:41 PM,41.0,33.8,76,29.11,5.0,East,21.9,29.9,0.02,Rain,Rain,80,2012-12-30 06:41:00
9:53 PM,41.0,34.0,76,29.11,6.0,ENE,18.4,-,0.04,Rain,Light Rain,60,2012-12-30 06:53:00
10:22 PM,42.8,35.6,76,29.09,9.0,East,16.1,24.2,0.02,Rain,Light Rain,80,2012-12-30 07:22:00
10:43 PM,42.8,33.8,70,29.08,5.0,East,19.6,32.2,0.03,Rain,Light Rain,90,2012-12-30 07:43:00
10:53 PM,41.0,34.0,76,29.07,5.0,East,20.7,31.1,0.04,Rain,Light Rain,90,2012-12-30 07:53:00
11:46 PM,39.2,33.8,81,29.01,7.0,ENE,17.3,-,0.04,Rain,Light Rain,70,2012-12-30 08:46:00
11:53 PM,41.0,34.0,76,29.03,8.0,ENE,17.3,-,0.04,Rain,Light Rain,70,2012-12-30 08:53:00